Other Public Products
Issued by NWS Grand Forks, ND

Home | Current Version | Previous Version | Text Only | Print | Product List | Glossary On
Versions: 1 2 3 4 5 6 7 8 9 10 11 12 13 14 15 16 17 18 19 20 21 22 23 24 25 26 27 28 29 30 31 32 33 34 35 36 37 38 39 40 41 42 43 44 45 46 47 48 49 50
000
FPUS83 KFGF 290810
OPUFGF
PRAIRIE TO PINES WEATHER ROUNDUP
NATIONAL WEATHER SERVICE EASTERN NORTH DAKOTA/GRAND FORKS ND
300 AM CDT FRI JUL 29 2016

 **SATELLITE DATA USED TO AUGMENT SKY COVER AT AUTOMATED STATIONS**
 *****  WEATHER ACROSS EASTERN NORTH DAKOTA  *****

CITY           SKY/WX    TMP DP  RH WIND       PRES   REMARKS
GRAND FORKS    CLEAR     54  51  90 W5        30.09S
GRAND FORKS AF CLEAR     53  52  97 NW5       30.10S
GRAND CITY NWS   N/A     57 N/A N/A N2          N/A
BUXTON           N/A     43  57 100 NW2         N/A
DEVILS LAKE    CLEAR     58  56  93 VRB3      30.14R
FARGO          PTCLDY    61  56  83 NE6       30.09F
WAHPETON ARPT  SUNNY     61  57  88 SE6       30.09S
$$

 *****  WEATHER ACROSS CENTRAL AND WESTERN NORTH DAKOTA  *****

CITY           SKY/WX    TMP DP  RH WIND       PRES   REMARKS
JAMESTOWN      CLOUDY    62  60  93 NE3       30.11S
BISMARCK       CLOUDY    64  58  80 NE3       30.12S
MINOT          MOCLDY    61  55  81 SW6       30.12S
MINOT AFB      CLEAR     51  49  91 W6        30.11S
GARRISON         N/A     57  55  93 N5        30.13S
WILLISTON      CLEAR     53  51  93 CALM      30.12F
DICKINSON      CLEAR     57  56  96 CALM      30.13F
HETTINGER      MOCLDY    52  50  93 CALM      30.16S
$$

 *****  OTHER OBSERVATIONS NORTHEAST NORTH DAKOTA  *****

CITY           SKY/WX    TMP DP  RH WIND       PRES   REMARKS
WALHALLA       NOT AVBL
LANGDON        FAIR      52  52 100 CALM      30.13S
CAVALIER       FAIR      55  54  94 CALM      30.11S
GRAFTON        FAIR      57  57 100 NW3       30.12S
CANDO          NOT AVBL
FORT TOTTEN      N/A     59  56  91 SE3       29.95S
ROLLA          FAIR      50  50 100 SW5       30.14S
RUGBY          NOT AVBL
 ***** THE ABOVE OBSERVATIONS ARE NON NWS ARE NOT QUALITY
        CONTROLLED AND MAY MIS-REPORT RAIN FOR SNOW...
$$

 *****  OTHER OBSERVATIONS SOUTHEAST NORTH DAKOTA *****

CITY           SKY/WX    TMP DP  RH WIND       PRES   REMARKS
COOPERSTOWN    NOT AVBL
VALLEY CITY    CLOUDY    61  61 100 NE5       30.13F
OAKES            N/A    N/A N/A N/A MISG        N/A
GWINNER        PTSUNNY   61  59  94 N5        30.10S
BUFFALO          N/A     61  54  76 NE6         N/A
WYNDMERE       NOT AVBL
 ***** THE ABOVE OBSERVATIONS ARE NON NWS ARE NOT QUALITY
       CONTROLLED AND MAY MIS-REPORT RAIN FOR SNOW...
$$

  *****  WEATHER ACROSS NORTHERN MINNESOTA  *****

CITY           SKY/WX    TMP DP  RH WIND       PRES   REMARKS
FLAG ISLAND    CLEAR     66  61  82 CALM      30.09S
WARROAD        CLEAR     55  52  88 CALM      30.11S
ROSEAU         CLEAR     54  48  82 CALM      30.11S
HALLOCK        CLEAR     55  54  94 CALM      30.10S
THF RVR FALLS  CLEAR     56  54  93 CALM      30.11F
HALSTAD          N/A     55  54  95 N5          N/A
FOSSTON        FOG       50  46  87 CALM      30.11F VSB 1
BAUDETTE       CLEAR     53  51  93 CALM      30.10S
WASKISH        CLEAR     55  54  94 CALM      30.10S
CROOKSTON      CLEAR     57  55  94 CALM      30.11S
$$
  *****  WEATHER ACROSS CENTRAL AND WEST MINNESOTA  *****

CITY           SKY/WX    TMP DP  RH WIND       PRES   REMARKS
BEMIDJI        CLEAR     54  50  87 NE3       30.11S
PARK RAPIDS    PTCLDY    58  55  90 CALM      30.11S
WADENA         NOT AVBL
DETROIT LAKES  CLEAR     63  59  88 CALM      30.12S
MOORHEAD       CLEAR     61  55  82 NE5       30.10S
FERGUS FALLS   CLEAR     64  59  82 CALM      30.11S
ELBOW LAKE     FAIR      61  58  92 E3        30.11S
MORRIS MN      CLEAR     61  61 100 CALM      30.09S
STAPLES        CLEAR     55  55 100 CALM      30.11S
WHEATON        PTCLDY    64  63  94 S5        30.10F
$$
  *****  WEATHER ELSEWHERE ACROSS MINNESOTA  *****

CITY           SKY/WX    TMP DP  RH WIND       PRES   REMARKS
DULUTH         CLEAR     51  49  92 N3        30.12S
INTRNTL FALLS  CLEAR     53  50  89 SE3       30.10S
ELY            CLEAR     48  46  93 CALM      30.13S
CLOQUET        CLEAR     48  46  93 NW5       30.12S
BRAINERD       CLEAR     57  57 100 CALM      30.11F
HIBBING        CLEAR     46  46 100 CALM      30.13R
ALEXANDRIA     CLEAR     57  54  89 CALM      30.11F
SAINT CLOUD    PTCLDY    57  55  93 N5        30.10R
MINNEAPOLIS    MOCLDY    65  56  72 N5        30.06S
$$

  *****  WEATHER ACROSS SOUTH DAKOTA  *****

CITY           SKY/WX    TMP DP  RH WIND       PRES   REMARKS
SIOUX FALLS    PTCLDY    58  55  90 N5        30.08S
BROOKINGS      CLEAR     56  54  93 CALM      30.09F
WATERTOWN      CLOUDY    67  57  70 CALM      30.10F
HURON          PTCLDY    62  57  83 CALM      30.08F
SISSETON         N/A     63  60  90 W5        30.08F
ABERDEEN       CLOUDY    66  61  84 E7        30.09F
MITCHELL       MOCLDY    62  58  86 E6        30.09S
PIERRE         CLOUDY    64  62  93 W7        30.09S
MOBRIDGE       CLOUDY    69  58  67 E7        30.07F
RAPID CITY     MOCLDY    56  55  97 SE3       30.16S FOG
$$

  *****  SOME WEATHER IN NEARBY STATES *****

CITY           SKY/WX    TMP DP  RH WIND       PRES   REMARKS
GLASGOW MT     CLEAR     59  53  80 E8        30.08F
GREAT FALLS MT CLEAR     67  50  54 E10       30.09F
CHEYENNE WY    CLOUDY    60  55  83 S10       30.29F
SCOTTSBLUFF NE CLEAR     61  58  90 S3        30.18S
OMAHA NE       CLOUDY    69  64  84 N7        30.00F
DES MOINES IA  CLOUDY    68  63  84 N5        29.98F
DAVENPORT IA   CLOUDY    67  66  97 W5        29.93R
CHICAGO IL     CLOUDY    70  68  93 NE7       29.91F
EAU CLAIRE WI  CLOUDY    64  59  83 NE6       30.03F
LA CROSSE WI   CLOUDY    66  62  87 N6        30.00S
$$

  *****  SOME NATIONAL WEATHER *****

CITY           SKY/WX    TMP DP  RH WIND       PRES   REMARKS
LA GUARDIA NY  RAIN      75  71  87 N9        29.83S FOG
RALEIGH NC     CLEAR     78  70  76 W3        29.87S
ATLANTA GA     MOCLDY    75  72  90 W6        30.03S
NEW ORLEANS LA PTCLDY    82  73  74 CALM      30.01F
OKLAHOMA CITY  PTCLDY    77  69  76 E12       29.97S
ALBUQUERQUE NM CLEAR     76  46  34 SE6       30.15R
SALT LAKE CITY PTCLDY    79  42  26 S7        30.03S
LOS ANGELES CA PTCLDY    70  64  81 SW6       29.84S
BOISE ID       CLEAR     75  36  24 SE7       29.95F
SEATTLE WA     CLEAR     73  60  63 NE7       30.03S
$$

*** WEATHER ACROSS MANITOBA...SASKATCHEWAN AND ONTARIO ***
                ***ONTARIO***

CITY           SKY/WX    TMP DP  RH WIND       PRES   REMARKS
GERALDTON      PTCLDY    52  50  93 NW3       30.10S
THUNDER BAY    CLEAR     52  52 100 SW6       30.10F
SIOUX LOOKOUT  PTCLDY    48  48 100 CALM      30.11R
TORONTO        MOCLDY    70  64  83 NE10      29.92S
BIG TROUT LK   CLOUDY    64  55  72 SW6       30.03S
PICKLE LAKE    NOT AVBL
DRYDEN         CLEAR     57  55  94 VRB2      30.11S
KENORA         CLEAR     61  57  88 N5        30.11S
$$
                *** MANITOBA***

CITY           SKY/WX    TMP DP  RH WIND       PRES   REMARKS
BRANDON        PTCLDY    52  50  93 NW2       30.10F
DAUPHIN        MOCLDY    61  57  88 W6        30.05F
ISLAND LAKE    MOCLDY    66  59  77 S3        30.02S
PILOT MOUND      N/A     52  52 100 S3          N/A
THE PAS        PTCLDY    61  59  94 S2        29.99F
THOMPSON       CLEAR     57  57 100 E2        30.01S
WINNIPEG       CLEAR     54  52  94 CALM      30.10F
LYNN LAKE      CLOUDY    61  57  88 MISG      30.00S
CHURCHILL      PTCLDY    50  46  87 W6        30.07S
GILLAM         MOCLDY    52  50  93 E3        30.06S
$$
                ***SASKATCHEWAN***

CITY           SKY/WX    TMP DP  RH WIND       PRES   REMARKS
ESTEVAN        PTCLDY    54  52  94 S3        30.12S
KINDERSLEY     LGT RAIN  63  59  88 VRB5      30.05R
LLOYDMINSTER   CLOUDY    59  57  94 SE6       30.02F
PRINCE ALBERT  LGT RAIN  63  61  94 S3        30.01F
REGINA         CLEAR     57  52  82 S7        30.09F
YORKTON        CLEAR     61  54  77 S8        30.08F
N. BATTLEFORD  NOT AVBL                                C1F1C2F2C3F3C4F4C5F5C6F6C7F7C8F8C9F9CaFaCbFbCcFcCdFdCe!



USA.gov is the U.S. government's official web portal to all federal, state and local government web resources and services.